Location: Quebec
(46.8000°N, 71.2500°W)
Time: 15:01:27
(UTC-05:00)

Vanguard 1 - Visible Passes

Search period start: 12 December 2017 00:00
Search period end: 22 December 2017 00:00
Orbit: 650 x 3833 km, 34.2° (Epoch: 10 December)

Date Brightness Start Highest point End Pass type
(mag) Time Alt. Az. Time Alt. Az. Time Alt. Az.
12 Dec 14.9 05:33:25 10° SSE 05:38:37 11° SE 05:43:32 10° ESE visible
13 Dec 14.8 05:47:33 10° SSE 05:59:20 17° SE 06:09:39 10° ESE visible
14 Dec 14.6 06:04:53 10° S 06:20:06 22° SE 06:32:50 10° E visible
15 Dec 14.5 06:23:25 10° SSW 06:40:56 28° SE 06:55:04 10° E visible
16 Dec 14.7 04:31:03 10° SSE 04:39:08 13° SE 04:46:53 10° ESE visible
16 Dec 14.3 06:42:42 10° SSW 07:01:48 34° SSE 07:16:47 10° E visible
17 Dec 14.5 04:46:32 10° S 04:59:40 19° SE 05:11:54 10° E visible
18 Dec 14.4 05:04:13 10° S 05:20:16 24° SE 05:34:57 10° E visible
19 Dec 14.3 05:22:56 10° SSW 05:40:56 30° SE 05:57:09 10° E visible
20 Dec 14.5 03:30:39 10° SSE 03:39:25 14° SE 03:48:14 10° ESE visible
20 Dec 14.1 05:42:18 10° SSW 06:01:43 36° SSE 06:18:54 10° E visible
21 Dec 14.3 03:46:37 10° SSE 03:59:44 19° SE 04:13:03 10° E visible
21 Dec 13.9 06:02:08 10° SSW 06:22:34 42° SSE 06:40:23 10° E visible
